KAL231 RKSI-PANC

Flight info

Callsign KAL231
Flight time N/A
Altitude 35000
Route EGOBA2H EGOBA Y697 KAE Y437 TENAS L512 GTC Y512 OATIS OTR3 PUTER A590 PLADO/N0490F370 A590 HAMND NEELL7
Aircraft B77L/H-SDE1E2E3FGHIJ2J3J4J5M1RWXY/LB1D1

Departure

Time 2026-05-06 12:55
Airport Incheon International Airport (RKSI)

Arrival

Time N/A
Airport Ted Stevens Anchorage International Airport (PANC)
Time Latitude Longitude Altitude Speed Heading
2026-05-06 12:55 37.40808 126.53224 1975 ft 223 kts 138°
2026-05-06 12:55 37.39732 126.54780 2229 ft 249 kts 136°
2026-05-06 12:55 37.38568 126.56473 2787 ft 259 kts 136°
2026-05-06 12:56 37.37365 126.58176 3474 ft 260 kts 142°
2026-05-06 12:56 37.35797 126.59231 3979 ft 256 kts 167°
2026-05-06 12:56 37.34094 126.59882 4613 ft 262 kts 165°
2026-05-06 12:56 37.32334 126.60628 5374 ft 265 kts 165°
2026-05-06 12:57 37.30596 126.61377 6051 ft 270 kts 164°
2026-05-06 12:57 37.28864 126.62331 6650 ft 278 kts 146°
2026-05-06 12:57 37.27612 126.64218 7200 ft 290 kts 114°
2026-05-06 12:57 37.27264 126.66723 7838 ft 295 kts 88°
2026-05-06 12:58 37.27399 126.69318 8389 ft 302 kts 86°
2026-05-06 12:58 37.27563 126.71964 9064 ft 306 kts 86°
2026-05-06 12:58 37.27728 126.74642 9757 ft 310 kts 86°
2026-05-06 12:58 37.27890 126.77334 10020 ft 311 kts 86°
2026-05-06 12:59 37.28047 126.80062 10005 ft 313 kts 86°
2026-05-06 12:59 37.28196 126.82788 9998 ft 312 kts 86°
2026-05-06 12:59 37.28342 126.85500 9991 ft 310 kts 86°
2026-05-06 12:59 37.28483 126.88167 9994 ft 309 kts 86°
2026-05-06 13:00 37.28657 126.90855 9996 ft 309 kts 84°
2026-05-06 13:00 37.28907 126.93570 9997 ft 308 kts 83°
2026-05-06 13:00 37.29164 126.96240 9993 ft 308 kts 83°
2026-05-06 13:00 37.29415 126.98875 10010 ft 308 kts 83°
2026-05-06 13:01 37.29664 127.01548 10006 ft 309 kts 83°
2026-05-06 13:01 37.29913 127.04264 10000 ft 310 kts 83°
2026-05-06 13:01 37.30152 127.06917 10011 ft 310 kts 83°
2026-05-06 13:01 37.30395 127.09623 10011 ft 311 kts 84°
2026-05-06 13:02 37.30649 127.12327 10007 ft 311 kts 80°
2026-05-06 13:02 37.31197 127.14944 10017 ft 310 kts 70°
2026-05-06 13:02 37.31928 127.17509 10009 ft 312 kts 69°
2026-05-06 13:02 37.32654 127.20080 10009 ft 313 kts 70°
2026-05-06 13:03 37.33359 127.22674 9992 ft 313 kts 70°
2026-05-06 13:03 37.34383 127.25031 9997 ft 306 kts 45°
2026-05-06 13:03 37.36030 127.26720 10248 ft 309 kts 32°
2026-05-06 13:03 37.37850 127.28300 10415 ft 333 kts 32°
2026-05-06 13:04 37.39830 127.30030 10578 ft 356 kts 32°
2026-05-06 13:04 37.41924 127.31871 10746 ft 379 kts 33°
2026-05-06 13:04 37.44126 127.33822 11192 ft 392 kts 33°
2026-05-06 13:04 37.46350 127.35812 11814 ft 398 kts 35°
2026-05-06 13:05 37.48314 127.38379 12283 ft 412 kts 57°
2026-05-06 13:05 37.49435 127.41703 13029 ft 416 kts 77°
2026-05-06 13:05 37.49993 127.45232 13690 ft 420 kts 80°
2026-05-06 13:05 37.50540 127.48890 14281 ft 428 kts 79°
2026-05-06 13:06 37.51101 127.52587 15055 ft 430 kts 79°
2026-05-06 13:06 37.51680 127.56297 15812 ft 433 kts 79°
2026-05-06 13:06 37.52278 127.60044 16508 ft 439 kts 79°
2026-05-06 13:06 37.52887 127.63828 17155 ft 444 kts 79°
2026-05-06 13:07 37.53503 127.67669 17825 ft 449 kts 79°
2026-05-06 13:07 37.54122 127.71552 18461 ft 454 kts 79°
2026-05-06 13:07 37.54744 127.75477 19045 ft 457 kts 78°
2026-05-06 13:07 37.55367 127.79420 19659 ft 461 kts 78°
2026-05-06 13:08 37.55994 127.83394 20246 ft 466 kts 78°
2026-05-06 13:08 37.56630 127.87427 20797 ft 470 kts 78°
2026-05-06 13:08 37.57260 127.91440 21353 ft 474 kts 78°
2026-05-06 13:08 37.57902 127.95534 21890 ft 478 kts 78°
2026-05-06 13:09 37.58547 127.99659 22449 ft 481 kts 78°
2026-05-06 13:09 37.59154 128.03550 22958 ft 485 kts 77°
2026-05-06 13:09 37.59808 128.07745 23481 ft 489 kts 77°
2026-05-06 13:09 37.60467 128.11983 23924 ft 493 kts 77°
2026-05-06 13:10 37.61127 128.16241 24388 ft 496 kts 77°
2026-05-06 13:10 37.61793 128.20533 24834 ft 500 kts 77°
2026-05-06 13:10 37.62464 128.24865 25218 ft 505 kts 77°
2026-05-06 13:10 37.63132 128.29181 25666 ft 508 kts 77°
2026-05-06 13:11 37.63811 128.33586 26120 ft 511 kts 77°
2026-05-06 13:11 37.64491 128.38005 26582 ft 513 kts 77°
2026-05-06 13:11 37.65161 128.42381 27047 ft 516 kts 76°
2026-05-06 13:11 37.65847 128.46869 27474 ft 519 kts 76°
2026-05-06 13:12 37.66531 128.51353 27868 ft 523 kts 76°
2026-05-06 13:12 37.67221 128.55887 28209 ft 528 kts 76°
2026-05-06 13:12 37.67912 128.60456 28583 ft 531 kts 76°
2026-05-06 13:12 37.68589 128.65049 28952 ft 534 kts 76°
2026-05-06 13:13 37.69264 128.69668 29385 ft 535 kts 76°
2026-05-06 13:13 37.69864 128.74318 29803 ft 538 kts 80°
2026-05-06 13:13 37.70166 128.78982 30189 ft 541 kts 86°
2026-05-06 13:13 37.70144 128.83784 30535 ft 543 kts 88°
2026-05-06 13:14 37.70057 128.88552 30960 ft 542 kts 89°
2026-05-06 13:14 37.69957 128.93304 31465 ft 539 kts 89°
2026-05-06 13:14 37.69865 128.98027 31873 ft 539 kts 88°
2026-05-06 13:14 37.69791 129.02484 32194 ft 539 kts 88°
2026-05-06 13:15 37.69723 129.07219 32545 ft 540 kts 88°
2026-05-06 13:15 37.69662 129.11961 32855 ft 541 kts 88°
2026-05-06 13:15 37.69604 129.16664 32896 ft 543 kts 87°
2026-05-06 13:16 37.69477 129.26156 32919 ft 537 kts 87°
2026-05-06 13:16 37.69339 129.35581 32924 ft 535 kts 87°
2026-05-06 13:17 37.69194 129.44984 32938 ft 535 kts 87°
2026-05-06 13:17 37.69042 129.54385 32934 ft 535 kts 87°
2026-05-06 13:18 37.68883 129.63729 32933 ft 536 kts 87°
2026-05-06 13:18 37.68715 129.73152 32937 ft 536 kts 87°
2026-05-06 13:19 37.68543 129.82566 32936 ft 536 kts 87°
2026-05-06 13:19 37.68359 129.91982 32936 ft 536 kts 87°
2026-05-06 13:20 37.68170 130.01079 32939 ft 536 kts 88°
2026-05-06 13:20 37.67968 130.10475 32935 ft 535 kts 87°
2026-05-06 13:21 37.67761 130.19849 32944 ft 533 kts 87°
2026-05-06 13:21 37.67547 130.29206 32945 ft 532 kts 88°
2026-05-06 13:22 37.67328 130.38471 32948 ft 531 kts 88°
2026-05-06 13:22 37.67103 130.47781 32949 ft 530 kts 88°
2026-05-06 13:23 37.66870 130.57082 32954 ft 529 kts 88°
2026-05-06 13:23 37.66631 130.66364 32947 ft 528 kts 88°
2026-05-06 13:24 37.66385 130.75652 32959 ft 528 kts 88°
2026-05-06 13:24 37.66133 130.84857 32955 ft 528 kts 88°
2026-05-06 13:25 37.65873 130.94120 32969 ft 528 kts 88°
2026-05-06 13:25 37.65614 131.03085 32956 ft 528 kts 88°
2026-05-06 13:26 37.65338 131.12374 32960 ft 528 kts 88°
2026-05-06 13:26 37.65058 131.21585 32963 ft 528 kts 88°
2026-05-06 13:27 37.64768 131.30844 32962 ft 527 kts 88°
2026-05-06 13:27 37.64473 131.40078 32970 ft 527 kts 88°
2026-05-06 13:28 37.64171 131.49312 32969 ft 526 kts 88°
2026-05-06 13:28 37.63864 131.58559 32971 ft 526 kts 88°
2026-05-06 13:29 37.63830 131.67767 32978 ft 524 kts 84°
2026-05-06 13:29 37.63962 131.76906 32979 ft 524 kts 84°
2026-05-06 13:30 37.64054 131.86110 32981 ft 525 kts 85°
2026-05-06 13:30 37.64093 131.95342 32984 ft 526 kts 85°
2026-05-06 13:31 37.64112 132.04323 32982 ft 526 kts 85°
2026-05-06 13:31 37.64128 132.13570 32990 ft 526 kts 85°
2026-05-06 13:32 37.64139 132.21248 32990 ft 526 kts 85°
2026-05-06 13:32 37.64145 132.30489 32995 ft 526 kts 85°
2026-05-06 13:33 37.64144 132.39716 32995 ft 526 kts 86°
2026-05-06 13:33 37.64136 132.48943 32998 ft 525 kts 86°
2026-05-06 13:34 37.64122 132.58096 33003 ft 525 kts 86°
2026-05-06 13:34 37.64124 132.67306 33018 ft 523 kts 84°
2026-05-06 13:35 37.64739 132.76416 33002 ft 519 kts 79°
2026-05-06 13:35 37.65497 132.85481 33002 ft 519 kts 79°
2026-05-06 13:36 37.66191 132.94484 33007 ft 518 kts 80°
2026-05-06 13:36 37.66846 133.03304 33008 ft 518 kts 80°
2026-05-06 13:37 37.67509 133.12356 33012 ft 518 kts 80°
2026-05-06 13:37 37.68166 133.21429 33010 ft 518 kts 80°
2026-05-06 13:38 37.68816 133.30489 33013 ft 518 kts 80°
2026-05-06 13:38 37.69460 133.39566 33012 ft 517 kts 80°
2026-05-06 13:39 37.70095 133.48612 33017 ft 517 kts 81°
2026-05-06 13:39 37.70723 133.57655 33016 ft 517 kts 81°
2026-05-06 13:40 37.71343 133.66667 33022 ft 517 kts 81°
2026-05-06 13:40 37.71957 133.75715 33023 ft 517 kts 81°
2026-05-06 13:41 37.72559 133.84770 33027 ft 517 kts 81°
2026-05-06 13:41 37.73150 133.93814 33025 ft 517 kts 81°
2026-05-06 13:42 37.73715 134.02533 33024 ft 517 kts 81°
2026-05-06 13:42 37.74293 134.11541 33030 ft 517 kts 81°
2026-05-06 13:43 37.74866 134.20598 33030 ft 517 kts 81°
2026-05-06 13:43 37.75433 134.29670 33031 ft 516 kts 81°
2026-05-06 13:44 37.75988 134.38654 33032 ft 515 kts 81°
2026-05-06 13:44 37.76539 134.47681 33035 ft 515 kts 81°
2026-05-06 13:45 37.77083 134.56698 33050 ft 515 kts 81°
2026-05-06 13:45 37.77885 134.70241 33040 ft 514 kts 81°
2026-05-06 13:46 37.78410 134.79246 33036 ft 514 kts 81°
2026-05-06 13:46 37.78929 134.88251 33040 ft 513 kts 81°
2026-05-06 13:47 37.79440 134.97248 33047 ft 513 kts 82°
2026-05-06 13:47 37.79928 135.05957 33040 ft 513 kts 82°
2026-05-06 13:48 37.80422 135.14909 33041 ft 513 kts 82°
2026-05-06 13:48 37.80914 135.23939 33048 ft 513 kts 82°
2026-05-06 13:49 37.81396 135.32901 33054 ft 513 kts 83°
2026-05-06 13:49 37.81874 135.41910 33047 ft 513 kts 83°
2026-05-06 13:50 37.82344 135.50923 33052 ft 513 kts 83°
2026-05-06 13:50 37.82808 135.59934 33044 ft 513 kts 83°
2026-05-06 13:51 37.83266 135.68969 33064 ft 515 kts 84°
2026-05-06 13:51 37.83715 135.77981 33054 ft 517 kts 84°
2026-05-06 13:52 37.84162 135.87087 33054 ft 518 kts 84°
2026-05-06 13:52 37.84603 135.96204 33056 ft 519 kts 84°
2026-05-06 13:53 37.85021 136.04982 33070 ft 520 kts 84°
2026-05-06 13:53 37.85449 136.14130 33057 ft 521 kts 84°
2026-05-06 13:54 37.85870 136.23275 33057 ft 521 kts 85°
2026-05-06 13:54 37.86284 136.32435 33056 ft 521 kts 85°
2026-05-06 13:55 37.86692 136.41598 33072 ft 521 kts 85°
2026-05-06 13:55 37.87092 136.50759 33064 ft 521 kts 85°
2026-05-06 13:56 37.87485 136.59879 33056 ft 523 kts 86°
2026-05-06 13:56 37.87873 136.69099 33075 ft 525 kts 86°
2026-05-06 13:57 37.88255 136.78350 33070 ft 527 kts 86°
2026-05-06 13:57 37.88632 136.87632 33076 ft 529 kts 86°
2026-05-06 13:58 37.89000 136.96896 33074 ft 530 kts 86°
2026-05-06 13:58 37.89354 137.05947 33060 ft 531 kts 87°
2026-05-06 13:59 37.89711 137.15296 33080 ft 532 kts 88°
2026-05-06 13:59 37.90063 137.24685 33084 ft 534 kts 88°
2026-05-06 14:00 37.90414 137.34093 33085 ft 536 kts 88°
2026-05-06 14:00 37.90771 137.43475 33087 ft 537 kts 88°
2026-05-06 14:01 37.91126 137.52934 33075 ft 537 kts 88°
2026-05-06 14:01 37.91472 137.62422 33095 ft 539 kts 89°
2026-05-06 14:02 37.91809 137.71931 33096 ft 541 kts 89°
2026-05-06 14:02 37.92140 137.81468 33090 ft 542 kts 89°
2026-05-06 14:03 37.92462 137.90948 33097 ft 542 kts 89°
2026-05-06 14:03 37.92771 138.00238 33071 ft 543 kts 89°
2026-05-06 14:04 37.93081 138.09792 33103 ft 547 kts 90°
2026-05-06 14:04 37.93380 138.19490 33113 ft 551 kts 90°
2026-05-06 14:05 37.93665 138.29160 33107 ft 554 kts 90°
2026-05-06 14:05 37.93947 138.38937 33110 ft 556 kts 90°
2026-05-06 14:06 37.94225 138.48722 33072 ft 556 kts 91°
2026-05-06 14:06 37.94492 138.58555 33105 ft 559 kts 91°
2026-05-06 14:07 37.94752 138.68401 33122 ft 562 kts 91°
2026-05-06 14:07 37.95007 138.78341 33101 ft 564 kts 91°
2026-05-06 14:08 37.95255 138.88272 33089 ft 563 kts 91°
2026-05-06 14:08 37.95493 138.98155 33052 ft 567 kts 92°
2026-05-06 14:09 37.95717 139.07925 33101 ft 578 kts 92°
2026-05-06 14:09 37.96391 139.18116 33086 ft 581 kts 85°
2026-05-06 14:10 37.97540 139.28241 33106 ft 580 kts 84°
2026-05-06 14:10 37.98676 139.38366 33102 ft 578 kts 85°
2026-05-06 14:11 37.99744 139.48459 33112 ft 576 kts 85°
2026-05-06 14:11 38.00780 139.58473 33097 ft 585 kts 85°
2026-05-06 14:12 38.01847 139.68784 33097 ft 591 kts 85°
2026-05-06 14:12 38.02911 139.79120 33102 ft 590 kts 85°
2026-05-06 14:13 38.03963 139.89476 33113 ft 591 kts 86°
2026-05-06 14:13 38.04999 139.99763 33102 ft 591 kts 86°
2026-05-06 14:14 38.05993 140.09707 33077 ft 578 kts 84°
2026-05-06 14:14 38.06996 140.19794 33101 ft 580 kts 85°
2026-05-06 14:15 38.07496 140.24899 33251 ft 585 kts 85°
2026-05-06 14:15 38.07998 140.30032 33540 ft 587 kts 85°
2026-05-06 14:15 38.08493 140.35115 33880 ft 588 kts 85°
2026-05-06 14:15 38.08995 140.40273 34192 ft 589 kts 85°
2026-05-06 14:16 38.09495 140.45438 34493 ft 590 kts 85°
2026-05-06 14:16 38.09993 140.50598 34901 ft 588 kts 86°
2026-05-06 14:16 38.10489 140.55767 35154 ft 588 kts 85°
2026-05-06 14:16 38.10816 140.59202 35137 ft 591 kts 85°